When you browse on this site, cookies collect data to enhance your experience and personalize the content and advertising you see.
Visit our Privacy Policy to learn more. By continuing to use the site, you agree to this use of cookies and data.

Stündliche Wetter Belmopan

Heute, 18 September, Freitag

Zeit Temperatur Niederschläge Wind Luftdruck Luftfeuchtigkeit
00:00 +24°C° 0 mm 0 m/S 750 mmHg 98%
01:00 +24°C° 0.1 mm 0 m/S 750 mmHg 98%
02:00 +24°C° 0.1 mm 0 m/S 750 mmHg 98%
03:00 +24°C° 0.1 mm 0 m/S 749 mmHg 98%
04:00 +24°C° 0.3 mm 0 m/S 750 mmHg 98%
05:00 +23°C° 0.3 mm 0 m/S 750 mmHg 98%
06:00 +25°C° 0 mm 1 m/S 750 mmHg 98%
07:00 +27°C° 0 mm 1 m/S 750 mmHg 88%
08:00 +30°C° 0 mm 1 m/S 751 mmHg 78%
09:00 +32°C° 0 mm 1 m/S 751 mmHg 67%
10:00 +34°C° 0 mm 1 m/S 751 mmHg 60%
11:00 +36°C° 0 mm 1 m/S 751 mmHg 53%
12:00 +37°C° 0 mm 1 m/S 750 mmHg 46%
13:00 +36°C° 0.5 mm 1 m/S 749 mmHg 51%
14:00 +35°C° 0.5 mm 1 m/S 748 mmHg 57%
15:00 +35°C° 0.5 mm 2 m/S 748 mmHg 63%
16:00 +32°C° 1.2 mm 1 m/S 748 mmHg 72%
17:00 +30°C° 1.2 mm 1 m/S 748 mmHg 82%
18:00 +28°C° 1.2 mm 1 m/S 749 mmHg 92%
19:00 +28°C° 1.2 mm 1 m/S 749 mmHg 94%
20:00 +25°C° 1.2 mm 0 m/S 750 mmHg 96%
21:00 +24°C° 1.2 mm 0 m/S 750 mmHg 97%
22:00 +24°C° 0.7 mm 0 m/S 751 mmHg 98%
23:00 +24°C° 0.7 mm 0 m/S 751 mmHg 98%

Morgen, 19 September, Samstag

Zeit Temperatur Niederschläge Wind Luftdruck Luftfeuchtigkeit
00:00 +26°C° 0.7 mm 1 m/S 751 mmHg 98%
01:00 +26°C° 0.1 mm 1 m/S 750 mmHg 98%
02:00 +25°C° 0.1 mm 1 m/S 750 mmHg 98%
03:00 +25°C° 0.1 mm 1 m/S 750 mmHg 98%
04:00 +25°C° 0 mm 1 m/S 750 mmHg 98%
05:00 +25°C° 0 mm 1 m/S 750 mmHg 98%
06:00 +25°C° 0 mm 1 m/S 750 mmHg 98%
07:00 +27°C° 0 mm 1 m/S 750 mmHg 88%
08:00 +29°C° 0 mm 1 m/S 751 mmHg 78%
09:00 +31°C° 0 mm 1 m/S 751 mmHg 69%
10:00 +33°C° 0.1 mm 1 m/S 751 mmHg 63%
11:00 +34°C° 0.1 mm 1 m/S 750 mmHg 58%
12:00 +35°C° 0.1 mm 1 m/S 750 mmHg 52%
13:00 +35°C° 0.4 mm 1 m/S 749 mmHg 55%
14:00 +34°C° 0.4 mm 1 m/S 749 mmHg 58%
15:00 +34°C° 0.4 mm 1 m/S 748 mmHg 61%
16:00 +32°C° 0.2 mm 1 m/S 748 mmHg 69%
17:00 +31°C° 0.2 mm 1 m/S 748 mmHg 76%
18:00 +29°C° 0.2 mm 1 m/S 749 mmHg 84%
19:00 +28°C° 0.1 mm 1 m/S 749 mmHg 87%
20:00 +25°C° 0.1 mm 0 m/S 750 mmHg 90%
21:00 +25°C° 0.1 mm 0 m/S 750 mmHg 92%
22:00 +24°C° 0.2 mm 0 m/S 750 mmHg 94%
23:00 +24°C° 0.2 mm 0 m/S 750 mmHg 95%

übermorgen, 20 September, Sonntag

Zeit Temperatur Niederschläge Wind Luftdruck Luftfeuchtigkeit
00:00 +24°C° 0.2 mm 0 m/S 750 mmHg 97%
01:00 +24°C° 0 mm 0 m/S 750 mmHg 97%
02:00 +23°C° 0 mm 0 m/S 749 mmHg 98%
03:00 +23°C° 0 mm 0 m/S 749 mmHg 98%
04:00 +23°C° 0 mm 0 m/S 749 mmHg 98%
05:00 +23°C° 0 mm 0 m/S 750 mmHg 98%
06:00 +23°C° 0 mm 0 m/S 750 mmHg 98%
07:00 +25°C° 0 mm 0 m/S 751 mmHg 89%
08:00 +27°C° 0 mm 0 m/S 751 mmHg 80%
09:00 +32°C° 0 mm 1 m/S 752 mmHg 70%
10:00 +33°C° 0 mm 1 m/S 751 mmHg 64%
11:00 +35°C° 0 mm 1 m/S 751 mmHg 57%
12:00 +36°C° 0 mm 1 m/S 751 mmHg 50%
13:00 +35°C° 0.8 mm 1 m/S 750 mmHg 60%
14:00 +33°C° 0.8 mm 1 m/S 749 mmHg 70%
15:00 +31°C° 0.8 mm 1 m/S 749 mmHg 79%
16:00 +30°C° 0.4 mm 1 m/S 749 mmHg 84%
17:00 +29°C° 0.4 mm 1 m/S 750 mmHg 88%
18:00 +26°C° 0.4 mm 0 m/S 750 mmHg 93%
19:00 +25°C° 0.4 mm 0 m/S 751 mmHg 95%
20:00 +25°C° 0.4 mm 0 m/S 751 mmHg 96%
21:00 +24°C° 0.4 mm 0 m/S 752 mmHg 98%
22:00 +24°C° 0 mm 0 m/S 752 mmHg 98%
23:00 +24°C° 0 mm 0 m/S 752 mmHg 98%

21 September, Montag

Zeit Temperatur Niederschläge Wind Luftdruck Luftfeuchtigkeit
00:00 +24°C° 0 mm 0 m/S 752 mmHg 98%
01:00 +23°C° 0 mm 0 m/S 751 mmHg 98%
02:00 +23°C° 0 mm 0 m/S 751 mmHg 99%
03:00 +23°C° 0 mm 0 m/S 751 mmHg 99%
04:00 +23°C° 0 mm 0 m/S 751 mmHg 99%
05:00 +23°C° 0 mm 0 m/S 751 mmHg 99%
06:00 +23°C° 0 mm 0 m/S 751 mmHg 99%
07:00 +25°C° 0.1 mm 0 m/S 751 mmHg 91%
08:00 +27°C° 0.1 mm 0 m/S 752 mmHg 82%
09:00 +29°C° 0.1 mm 0 m/S 753 mmHg 74%
10:00 +30°C° 0.1 mm 0 m/S 752 mmHg 65%
11:00 +32°C° 0.1 mm 0 m/S 752 mmHg 57%
12:00 +35°C° 0.1 mm 1 m/S 751 mmHg 48%
13:00 +35°C° 0 mm 1 m/S 751 mmHg 47%
14:00 +35°C° 0 mm 1 m/S 750 mmHg 45%
15:00 +36°C° 0 mm 2 m/S 749 mmHg 44%
16:00 +34°C° 0 mm 2 m/S 749 mmHg 54%
17:00 +31°C° 0 mm 1 m/S 750 mmHg 65%
18:00 +28°C° 0 mm 1 m/S 750 mmHg 75%
19:00 +27°C° 0 mm 1 m/S 750 mmHg 79%
20:00 +27°C° 0 mm 1 m/S 751 mmHg 82%
21:00 +26°C° 0 mm 1 m/S 752 mmHg 86%
22:00 +25°C° 0 mm 1 m/S 751 mmHg 87%
23:00 +25°C° 0 mm 1 m/S 751 mmHg 88%

22 September, Dienstag

Zeit Temperatur Niederschläge Wind Luftdruck Luftfeuchtigkeit
00:00 +25°C° 0 mm 1 m/S 751 mmHg 88%
01:00 +25°C° 0 mm 1 m/S 751 mmHg 89%
02:00 +22°C° 0 mm 0 m/S 751 mmHg 90%
03:00 +22°C° 0 mm 0 m/S 751 mmHg 92%
04:00 +22°C° 0 mm 0 m/S 751 mmHg 92%
05:00 +22°C° 0 mm 0 m/S 751 mmHg 93%
06:00 +22°C° 0 mm 0 m/S 751 mmHg 93%
07:00 +24°C° 0 mm 0 m/S 751 mmHg 81%
08:00 +29°C° 0 mm 1 m/S 752 mmHg 70%
09:00 +32°C° 0 mm 1 m/S 752 mmHg 58%
10:00 +34°C° 0 mm 1 m/S 752 mmHg 52%
11:00 +36°C° 0 mm 1 m/S 751 mmHg 46%
12:00 +37°C° 0 mm 1 m/S 751 mmHg 40%
13:00 +36°C° 0 mm 1 m/S 750 mmHg 44%
14:00 +35°C° 0 mm 1 m/S 750 mmHg 49%
15:00 +35°C° 0 mm 2 m/S 749 mmHg 53%
16:00 +32°C° 0.2 mm 2 m/S 749 mmHg 65%
17:00 +30°C° 0.2 mm 1 m/S 749 mmHg 77%
18:00 +27°C° 0.2 mm 1 m/S 749 mmHg 89%
19:00 +27°C° 0 mm 1 m/S 750 mmHg 91%
20:00 +26°C° 0 mm 1 m/S 750 mmHg 93%
21:00 +26°C° 0 mm 1 m/S 751 mmHg 94%
22:00 +25°C° 0 mm 1 m/S 751 mmHg 95%
23:00 +23°C° 0 mm 0 m/S 751 mmHg 95%

23 September, Mittwoch

Zeit Temperatur Niederschläge Wind Luftdruck Luftfeuchtigkeit
00:00 +23°C° 0 mm 0 m/S 751 mmHg 96%
01:00 +23°C° 0 mm 0 m/S 751 mmHg 96%
02:00 +22°C° 0 mm 0 m/S 750 mmHg 96%
03:00 +22°C° 0 mm 0 m/S 750 mmHg 96%
04:00 +22°C° 0 mm 0 m/S 750 mmHg 96%
05:00 +22°C° 0 mm 0 m/S 750 mmHg 96%
06:00 +22°C° 0 mm 0 m/S 751 mmHg 95%
07:00 +25°C° 0 mm 0 m/S 751 mmHg 84%
08:00 +28°C° 0 mm 0 m/S 751 mmHg 72%
09:00 +31°C° 0 mm 0 m/S 752 mmHg 60%
10:00 +32°C° 0 mm 0 m/S 751 mmHg 54%
11:00 +35°C° 0 mm 1 m/S 751 mmHg 49%
12:00 +37°C° 0 mm 1 m/S 750 mmHg 43%
13:00 +36°C° 0 mm 1 m/S 750 mmHg 45%
14:00 +36°C° 0 mm 1 m/S 749 mmHg 47%
15:00 +36°C° 0 mm 2 m/S 748 mmHg 49%
16:00 +34°C° 0.1 mm 2 m/S 748 mmHg 59%
17:00 +31°C° 0.1 mm 2 m/S 749 mmHg 69%
18:00 +29°C° 0.1 mm 2 m/S 749 mmHg 78%
19:00 +28°C° 0 mm 1 m/S 749 mmHg 82%
20:00 +27°C° 0 mm 1 m/S 750 mmHg 85%
21:00 +26°C° 0 mm 1 m/S 751 mmHg 88%
22:00 +25°C° 0 mm 1 m/S 750 mmHg 89%
23:00 +25°C° 0 mm 1 m/S 750 mmHg 90%
Mehr zeigen